Location: Bodest
(46.3000°N, 22.5667°E)
Time: 01:11:05
(UTC+00:00)

Cosmos 2344 - Pass Details

Date: 16 October 2021
Orbit: 1233 x 3009 km, 63.3° (Epoch: 02 December)

Event Time Altitude Azimuth Distance (km) Brightness Sun altitude
Rises 17:49:58 0° 319° (NW) 4,432 7.2 -22.9°
Reaches altitude 10° 17:52:36 10° 323° (NW) 3,580 6.6 -23.3°
Maximum altitude 18:01:24 63° 44° (NE) 1,943 4.3 -24.8°
Enters shadow 18:06:03 39° 109° (ESE) 2,704 4.7 -25.6°
